Temperature
-1 -1 -1 -1 -1 -2 -2 0 1 1 0 1 -0 -1 -2 -3 -4 -4 -4 -4 -4 -4 -4 -4 -3 -3 -3 -3 -2 -2 -2 -2 -2 -2 -2 -2 -2 -2 -2 -2 -2 -2 -3 -3
-2 -2 -2 -2 -2 -2 -2 -1 -1 -1 -1 -1 -2 -3 -3 -4 -4 -5 -5 -5 -5 -5 -5 -4 -4 -4 -4 -3 -3 -3 -3 -3 -2 -2 -3 -3 -3 -3 -3 -3 -3 -3 -3 -3
-0 -2 -2 -1 -1 -2 -2 -3 -2 -1 -0 -2 -3 -3 -4 -4 -5 -5 -5 -5 -5 -5 -5 -5 -5 -5 -4 -4 -4 -4 -3 -3 -3 -3 -3 -3 -3 -3 -3 -3 -3 -3 -3 -4
-1 -2 -1 1 -3 -3 -3 -3 -3 -3 -3 -4 -4 -5 -5 -5 -5 -6 -6 -6 -6 -6 -6 -6 -5 -5 -5 -5 -4 -4 -4 -4 -4 -4 -4 -4 -4 -4 -4 -4 -4 -4 -4 -4
-2 -1 0 -0 -3 -4 -4 -3 -4 -4 -4 -5 -6 -5 -4 -5 -6 -6 -6 -6 -6 -6 -6 -6 -6 -6 -6 -5 -5 -5 -5 -5 -5 -5 -5 -5 -5 -5 -5 -5 -5 -5 -5 -5
-2 -1 -0 -0 -4 -6 -4 -2 -4 -6 -5 -6 -6 -3 -3 -6 -6 -6 -7 -7 -7 -7 -7 -6 -6 -6 -6 -6 -6 -6 -6 -6 -6 -6 -5 -5 -5 -5 -5 -5 -5 -5 -5 -6
-2 -2 -1 -4 -6 -5 -2 -2 -5 -6 -6 -7 -6 -5 -6 -7 -7 -7 -7 -7 -7 -7 -7 -7 -7 -7 -7 -6 -6 -6 -6 -6 -6 -6 -6 -6 -6 -6 -6 -6 -6 -6 -6 -6
-3 -2 -2 -6 -6 -4 -4 -6 -6 -7 -7 -7 -7 -7 -7 -7 -7 -7 -7 -7 -7 -7 -7 -7 -7 -7 -7 -7 -7 -7 -7 -7 -7 -7 -7 -7 -7 -7 -7 -7 -7 -7 -7 -7
-4 -3 -5 -7 -6 -6 -6 -7 -7 -7 -7 -7 -8 -8 -8 -8 -8 -8 -8 -8 -8 -8 -8 -8 -8 -8 -8 -7 -7 -7 -7 -7 -8 -8 -8 -8 -8 -8 -8 -8 -8 -8 -8 -8
-6 -6 -7 -7 -7 -7 -7 -7 -7 -7 -7 -8 -8 -8 -8 -8 -8 -8 -8 -9 -9 -8 -8 -8 -8 -8 -8 -8 -8 -8 -8 -8 -8 -8 -8 -8 -8 -9 -9 -9 -9 -9 -9 -9
-7 -7 -7 -7 -7 -7 -7 -7 -8 -8 -8 -8 -8 -8 -9 -9 -9 -9 -9 -9 -9 -9 -9 -9 -9 -9 -9 -9 -9 -9 -9 -9 -9 -9 -9 -9 -9 -9 -9 -9 -9 -9 -9 -9
-5 -6 -7 -7 -7 -7 -8 -8 -8 -8 -8 -8 -9 -9 -9 -9 -9 -9 -10 -10 -10 -10 -10 -9 -9 -9 -9 -9 -9 -9 -10 -10 -10 -10 -10 -10 -10 -10 -10 -10 -10 -10 -10 -10
-8 -8 -8 -8 -8 -8 -8 -8 -9 -9 -9 -9 -9 -9 -10 -10 -10 -10 -10 -10 -10 -10 -10 -10 -10 -10 -10 -10 -10 -10 -10 -10 -10 -10 -10 -10 -10 -10 -10 -10 -10 -10 -10 -10
-8 -9 -9 -8 -8 -8 -9 -9 -9 -9 -9 -10 -10 -10 -10 -10 -10 -10 -10 -10 -10 -11 -11 -11 -10 -10 -10 -10 -10 -10 -11 -11 -11 -11 -11 -11 -11 -11 -11 -11 -11 -11 -11 -11
-9 -9 -9 -9 -9 -9 -9 -9 -10 -10 -10 -10 -10 -10 -11 -11 -11 -11 -11 -11 -11 -11 -11 -11 -11 -11 -11 -11 -11 -11 -11 -11 -11 -11 -11 -11 -11 -11 -11 -11 -12 -11 -11 -11
-9 -9 -10 -10 -10 -10 -10 -10 -10 -10 -10 -11 -11 -11 -11 -11 -11 -11 -11 -11 -11 -11 -11 -11 -11 -11 -11 -12 -11 -11 -12 -12 -12 -12 -12 -12 -12 -12 -12 -12 -12 -12 -12 -12
-10 -10 -10 -10 -10 -10 -10 -10 -11 -11 -11 -11 -11 -12 -12 -12 -12 -12 -12 -12 -12 -12 -12 -12 -12 -12 -12 -12 -12 -12 -12 -12 -12 -12 -12 -12 -12 -12 -12 -12 -12 -12 -12 -12
-10 -10 -10 -10 -10 -11 -11 -11 -11 -11 -11 -12 -12 -12 -12 -12 -12 -12 -12 -12 -12 -12 -12 -12 -12 -12 -12 -12 -12 -12 -12 -12 -12 -12 -12 -12 -12 -12 -13 -13 -13 -13 -13 -13
-10 -10 -10 -10 -11 -11 -11 -11 -12 -12 -12 -12 -12 -12 -13 -13 -13 -13 -13 -13 -13 -13 -13 -13 -13 -13 -13 -13 -13 -13 -13 -13 -13 -13 -13 -13 -13 -13 -13 -13 -13 -13 -13 -13
-11 -11 -11 -11 -11 -11 -12 -12 -12 -12 -12 -13 -13 -13 -13 -13 -13 -13 -13 -13 -13 -13 -13 -13 -13 -13 -13 -13 -13 -13 -13 -13 -13 -13 -13 -13 -13 -13 -13 -13 -13 -13 -13 -13
-11 -11 -11 -11 -12 -12 -12 -12 -12 -13 -13 -13 -13 -13 -14 -14 -14 -14 -14 -14 -14 -14 -14 -14 -14 -14 -14 -14 -14 -14 -14 -14 -14 -14 -14 -14 -14 -14 -14 -14 -14 -14 -14 -14
-11 -12 -12 -12 -12 -12 -12 -13 -13 -13 -13 -14 -14 -14 -14 -14 -14 -14 -14 -14 -14 -14 -14 -14 -14 -14 -14 -14 -14 -14 -14 -14 -14 -14 -14 -14 -14 -14 -14 -14 -14 -14 -14 -14
-12 -12 -12 -12 -12 -13 -13 -13 -13 -14 -14 -14 -14 -14 -14 -15 -15 -15 -15 -15 -15 -15 -15 -15 -15 -15 -15 -15 -15 -15 -15 -14 -14 -14 -14 -14 -14 -14 -14 -14 -14 -14 -14 -14
-12 -12 -13 -13 -13 -13 -13 -13 -14 -14 -14 -14 -15 -15 -15 -15 -15 -15 -15 -15 -15 -15 -15 -15 -15 -15 -15 -15 -15 -15 -15 -15 -15 -15 -15 -15 -15 -15 -15 -15 -15 -15 -15 -15
-13 -13 -13 -13 -13 -13 -14 -14 -14 -14 -15 -15 -15 -15 -15 -15 -15 -15 -16 -16 -16 -16 -16 -15 -15 -16 -15 -15 -15 -15 -15 -15 -15 -15 -15 -15 -15 -15 -15 -15 -15 -15 -15 -15
-13 -13 -14 -14 -14 -14 -14 -15 -15 -15 -15 -15 -15 -15 -15 -16 -16 -16 -16 -16 -16 -16 -16 -16 -16 -16 -16 -16 -16 -16 -16 -16 -16 -15 -15 -15 -15 -15 -15 -15 -15 -15 -15 -15
-14 -14 -14 -14 -14 -15 -15 -15 -15 -15 -15 -15 -15 -16 -16 -16 -16 -16 -16 -16 -16 -16 -16 -16 -16 -16 -16 -16 -16 -16 -16 -16 -16 -16 -16 -15 -15 -15 -15 -15 -15 -15 -15 -15
Wind_Speed
6 6 3 5 6 6 8 8 8 8 9 8 6 6 7 6 4 5 5 6 7 7 8 7 7 6 6 5 4 4 3 3 3 4 3 3 3 4 4 4 5 5 5 5
5 4 4 6 8 8 9 9 10 10 11 7 6 5 5 5 4 5 6 7 8 8 8 8 8 7 6 6 5 4 4 3 3 3 3 3 3 3 3 4 4 4 5 5
5 3 4 8 8 9 7 7 8 11 9 4 5 5 6 6 5 6 6 7 8 8 8 8 8 7 7 6 5 4 4 4 3 3 3 3 3 3 4 4 4 4 5 5
3 2 7 3 1 4 7 7 7 7 5 5 5 7 6 5 5 6 7 7 8 8 8 8 8 7 6 6 5 4 4 4 4 3 4 4 3 4 4 4 4 4 5 5
3 5 7 4 1 2 4 5 5 7 8 6 5 5 3 2 4 5 7 7 8 8 8 8 8 7 6 5 4 4 4 4 4 4 4 4 4 4 4 3 4 4 4 4
4 5 6 2 1 1 2 4 1 3 5 4 3 4 4 3 6 7 7 7 7 7 7 7 7 6 5 5 5 5 5 5 4 4 4 4 4 4 3 3 3 3 3 4
6 7 6 2 1 2 3 3 2 2 3 3 4 5 5 6 7 7 7 7 7 6 6 6 7 6 5 5 5 6 5 5 4 4 4 4 4 3 3 2 2 2 3 3
4 6 6 2 3 3 3 3 2 3 3 4 4 5 5 6 6 7 7 7 7 6 6 6 6 5 5 6 6 5 5 4 4 4 3 3 3 3 3 2 2 2 2 2
5 4 2 3 3 2 2 3 3 3 4 3 4 5 6 6 6 7 7 7 6 6 6 6 5 5 5 6 6 5 4 4 4 4 3 3 3 3 2 2 2 2 2 2
4 5 4 4 3 3 3 3 4 4 4 4 5 5 6 6 6 6 7 6 6 6 6 6 6 5 5 6 5 4 4 4 4 3 3 3 2 2 2 2 2 2 3 3
5 5 5 4 4 4 4 3 4 4 4 4 4 5 6 6 6 6 6 6 5 5 6 7 6 6 6 5 4 4 4 4 4 3 3 3 3 3 3 3 4 4 3 4
5 3 3 4 3 3 3 4 4 4 4 4 4 5 5 5 5 5 6 6 6 6 6 6 6 6 6 6 4 4 4 4 3 3 3 3 3 3 3 4 5 6 6 5
3 2 3 4 3 2 2 3 3 3 3 4 4 4 5 5 5 5 5 6 6 6 6 6 6 6 6 6 5 4 4 4 4 4 3 3 3 3 3 3 4 5 5 6
2 1 2 2 2 2 2 2 2 3 3 3 4 4 4 5 5 5 5 6 6 6 6 6 6 6 6 6 5 5 4 5 4 4 4 3 3 3 3 4 4 3 4 5
2 3 3 2 2 2 2 2 2 3 4 4 4 4 4 5 5 6 5 5 5 5 5 5 6 6 6 6 5 5 4 4 4 4 4 3 3 3 3 4 4 4 4 4
2 2 2 2 2 2 2 2 2 4 4 5 5 5 5 5 5 5 5 4 4 5 5 6 6 6 6 6 5 5 4 5 5 4 4 3 3 3 3 3 4 4 3 3
2 2 3 3 4 4 4 4 4 4 4 5 5 5 5 4 4 5 5 5 5 5 5 5 6 6 6 5 5 4 4 4 5 4 4 3 3 3 3 4 3 3 3 4
4 4 4 4 4 5 5 4 4 4 5 5 5 5 4 4 5 5 5 5 5 5 5 5 5 6 5 5 4 4 3 4 4 4 4 3 3 3 3 3 4 4 3 3
3 3 3 3 4 4 4 4 4 5 5 4 4 4 5 5 5 5 5 4 4 5 5 6 7 6 5 6 5 3 3 4 4 4 4 4 4 3 3 3 3 3 3 3
3 3 3 3 3 3 3 4 4 4 4 4 4 4 5 5 5 5 4 4 4 4 5 6 6 5 5 5 5 3 3 4 4 4 3 3 3 3 3 3 3 3 3 3
3 3 3 3 3 3 3 3 3 4 4 3 4 4 5 5 4 4 4 4 4 5 5 6 5 4 4 5 5 3 3 3 3 3 3 3 3 3 3 3 3 3 3 3
3 3 3 3 3 4 3 3 3 4 4 4 4 4 4 4 4 4 4 4 5 6 5 4 4 5 6 5 3 3 3 3 3 3 3 3 3 3 3 4 3 3 3 3
3 3 3 3 3 4 3 3 3 3 4 4 4 4 4 4 4 4 4 3 4 6 5 4 5 7 7 4 3 3 3 3 3 3 3 4 4 4 4 4 4 4 4 3
3 3 3 3 2 2 3 3 3 3 4 4 4 4 4 4 4 3 4 6 7 7 5 6 7 7 6 3 3 3 3 3 4 4 4 4 4 4 4 4 4 4 4 5
2 2 2 2 2 3 3 3 3 3 3 3 4 4 3 3 4 4 4 5 6 6 5 6 7 7 5 3 4 4 4 4 4 4 4 4 4 4 4 4 4 4 4 4
2 2 2 3 3 2 2 2 3 3 3 3 4 3 3 3 3 4 4 4 5 6 5 4 5 5 4 4 4 4 4 5 5 4 4 5 5 5 5 5 6 5 5 5
2 2 2 2 2 2 2 2 3 3 3 3 4 4 3 3 3 4 4 4 4 4 4 4 4 4 4 4 4 4 4 5 5 5 5 5 5 5 5 6 6 6 6 6
Wind_Direction
275 283 259 258 250 224 223 237 243 257 262 276 288 297 304 313 323 328 330 332 332 332 331 332 331 330 324 317 314 312 302 284 277 275 269 264 259 253 250 247 246 246 245 243
271 258 261 275 262 237 238 245 248 264 270 282 298 304 306 309 315 317 321 324 327 329 328 327 325 323 319 314 312 307 300 292 291 287 280 272 268 262 256 253 252 250 249 247
264 288 279 267 248 224 226 228 227 243 261 297 300 300 303 306 311 311 316 320 324 324 322 319 319 316 313 311 309 305 300 297 294 289 283 273 270 266 262 259 257 256 253 251
263 257 245 259 67 210 223 240 233 250 282 299 296 301 298 296 298 310 316 317 318 319 318 317 316 314 311 309 305 303 302 298 295 288 282 278 270 266 268 268 261 259 259 255
222 247 267 264 200 193 223 260 242 248 272 292 311 303 289 318 320 312 311 312 312 313 313 313 314 314 312 310 307 304 301 296 295 287 281 280 274 269 268 266 266 265 264 260
219 240 252 288 42 322 207 256 221 246 280 299 299 285 305 332 320 317 316 316 314 314 314 314 317 317 311 310 310 307 303 296 292 284 277 276 278 278 278 269 267 274 278 275
231 243 261 343 35 175 221 291 347 285 282 276 262 281 309 315 316 317 318 319 319 317 318 317 319 318 312 313 312 311 308 303 299 290 280 276 277 277 277 275 276 277 277 286
219 234 255 85 140 206 282 338 312 298 293 276 278 296 303 310 316 321 323 324 324 322 321 324 327 323 315 316 317 317 313 310 308 302 293 284 278 280 276 270 271 276 283 294
216 237 340 171 209 281 322 298 298 299 300 286 292 297 304 311 314 318 320 322 325 322 320 327 331 326 317 316 320 318 315 314 312 309 302 289 276 274 277 271 267 270 268 273
253 265 270 244 262 296 302 294 302 300 294 286 288 292 302 308 312 316 319 322 324 324 323 326 331 328 319 315 316 313 313 316 315 311 306 298 285 276 275 272 264 261 264 270
256 278 295 264 259 279 290 299 306 309 304 293 292 294 299 303 308 313 318 322 324 322 320 322 326 327 327 326 321 316 314 313 313 309 304 304 298 289 281 274 267 268 267 269
244 252 250 281 308 287 271 283 292 303 313 311 297 293 300 302 307 313 317 321 322 322 321 323 326 327 330 331 326 315 314 316 313 309 305 299 300 301 285 279 284 280 278 274
273 303 279 293 308 301 277 286 295 292 294 303 307 302 301 305 310 315 317 320 320 319 320 321 325 327 330 331 326 316 309 309 307 306 302 297 294 294 301 299 287 284 284 283
276 296 280 277 293 302 301 312 317 316 312 308 305 307 307 308 311 314 316 320 319 319 319 321 323 324 328 328 324 317 311 307 305 300 298 292 290 290 289 292 297 298 298 295
255 251 261 290 306 312 322 331 331 324 324 321 314 310 310 310 310 312 315 318 320 319 321 322 321 324 328 327 323 317 313 310 308 306 302 295 292 289 287 286 287 291 296 297
263 251 250 265 272 291 305 306 299 301 308 309 308 309 309 306 306 308 314 319 318 318 320 318 318 323 326 325 322 318 313 313 315 310 306 298 291 287 285 285 286 287 289 297
222 246 248 261 267 277 279 281 282 288 295 296 299 305 307 308 309 312 316 318 312 306 308 311 315 320 324 323 318 316 316 317 320 313 306 300 292 288 287 286 286 289 291 293
242 253 248 255 257 263 277 285 286 288 288 291 298 299 298 296 298 305 312 318 318 316 318 319 318 320 322 323 319 315 314 314 315 314 311 306 299 292 289 289 290 289 295 299
257 261 265 265 260 257 265 275 282 286 289 290 290 290 290 290 293 300 306 308 307 312 321 324 323 326 324 323 322 316 315 315 316 315 314 311 311 303 296 292 293 293 296 300
275 275 276 275 272 265 269 278 282 283 285 285 285 288 292 295 296 298 299 295 294 301 309 314 320 321 320 321 322 315 313 312 313 314 314 312 311 310 302 295 293 293 295 296
283 277 272 271 280 283 277 276 273 279 286 281 273 277 285 293 294 292 291 296 307 309 310 312 316 314 316 318 319 316 314 313 312 311 310 309 308 308 308 302 295 293 292 294
275 269 269 271 275 286 289 285 279 279 284 283 279 279 285 291 295 292 281 278 293 306 313 307 307 310 319 321 318 315 312 309 307 308 307 306 304 304 305 305 301 300 296 295
276 273 272 272 274 284 294 291 283 278 276 277 276 276 277 282 284 281 290 292 295 302 306 300 306 312 318 322 312 307 306 305 302 301 301 301 299 298 298 298 297 295 294 295
281 282 284 290 287 278 285 296 296 289 285 284 280 277 275 281 284 278 281 294 303 304 302 302 310 314 317 314 304 300 298 299 298 296 296 295 295 293 292 292 291 292 290 291
281 283 285 284 278 275 282 294 298 295 296 297 297 293 284 275 275 289 294 293 299 304 302 302 307 311 313 305 300 296 294 292 294 296 294 294 292 290 289 288 287 287 287 285
287 284 280 276 274 276 280 280 284 289 293 299 306 306 302 298 292 292 293 294 295 300 300 297 301 303 301 299 297 294 293 294 295 295 292 292 291 290 288 288 288 285 284 283
299 299 298 301 296 287 282 279 280 286 288 287 295 301 303 303 299 298 297 296 297 298 298 298 297 295 293 293 293 293 292 291 289 289 290 288 287 286 286 286 286 283 282 280
Height
1497 1496 1497 1496 1496 1498 1497 1489 1484 1480 1482 1480 1483 1484 1483 1482 1481 1480 1478 1477 1475 1473 1471 1469 1467 1466 1464 1463 1462 1462 1461 1461 1461 1461 1460 1460 1460 1460 1460 1460 1460 1460 1460 1460
1498 1496 1497 1495 1492 1494 1494 1491 1488 1486 1483 1482 1483 1483 1482 1481 1480 1478 1477 1475 1473 1471 1469 1467 1465 1463 1462 1460 1459 1459 1458 1458 1457 1457 1456 1456 1455 1455 1455 1455 1455 1455 1455 1455
1489 1495 1495 1485 1485 1488 1488 1487 1485 1482 1480 1481 1482 1482 1481 1479 1478 1477 1476 1474 1472 1469 1467 1465 1463 1461 1459 1457 1457 1456 1455 1454 1454 1453 1453 1452 1451 1451 1451 1451 1451 1451 1450 1451
1492 1494 1487 1477 1484 1483 1484 1483 1484 1482 1481 1482 1481 1480 1479 1478 1477 1475 1474 1472 1469 1467 1465 1463 1461 1459 1457 1455 1454 1453 1452 1451 1450 1450 1449 1448 1448 1447 1447 1446 1446 1446 1445 1445
1491 1485 1476 1478 1483 1485 1484 1480 1481 1481 1480 1481 1480 1478 1476 1476 1475 1474 1472 1470 1468 1465 1463 1460 1458 1456 1454 1452 1451 1450 1449 1448 1447 1446 1445 1444 1444 1443 1443 1442 1442 1441 1441 1440
1490 1483 1475 1473 1483 1483 1484 1477 1478 1479 1479 1479 1478 1475 1474 1474 1473 1471 1469 1467 1465 1462 1460 1458 1456 1454 1452 1450 1448 1447 1446 1445 1444 1443 1442 1441 1440 1440 1439 1438 1437 1437 1436 1436
1487 1481 1474 1481 1483 1483 1479 1473 1478 1477 1477 1477 1477 1476 1474 1472 1470 1469 1467 1464 1462 1460 1457 1455 1453 1451 1449 1448 1446 1445 1443 1442 1441 1440 1439 1438 1437 1436 1435 1435 1434 1433 1432 1432
1486 1482 1477 1483 1483 1482 1478 1478 1477 1476 1476 1475 1474 1473 1471 1470 1468 1466 1464 1462 1459 1457 1455 1453 1451 1449 1447 1445 1444 1442 1440 1439 1438 1437 1436 1435 1434 1433 1432 1431 1430 1429 1428 1428
1484 1480 1480 1480 1479 1479 1478 1477 1476 1475 1474 1473 1472 1470 1469 1467 1465 1464 1462 1459 1457 1455 1452 1450 1448 1446 1444 1443 1441 1439 1438 1436 1435 1434 1433 1432 1431 1430 1429 1428 1427 1426 1425 1425
1484 1479 1479 1478 1477 1477 1476 1475 1475 1474 1473 1471 1470 1468 1467 1465 1463 1461 1459 1457 1454 1452 1450 1448 1446 1444 1442 1440 1438 1437 1435 1433 1432 1431 1430 1429 1428 1427 1426 1425 1424 1423 1422 1422
1481 1478 1477 1474 1474 1474 1474 1473 1473 1472 1471 1469 1468 1466 1464 1462 1461 1459 1457 1455 1452 1450 1447 1445 1443 1442 1440 1438 1436 1434 1433 1431 1430 1429 1428 1426 1425 1425 1423 1422 1422 1421 1420 1419
1474 1474 1474 1473 1472 1472 1471 1471 1470 1469 1468 1467 1466 1464 1462 1460 1458 1456 1454 1452 1450 1448 1445 1443 1441 1439 1438 1436 1434 1432 1430 1429 1428 1427 1425 1424 1422 1421 1420 1420 1418 1417 1416 1416
1473 1472 1472 1471 1470 1470 1469 1469 1468 1467 1466 1464 1463 1462 1460 1458 1456 1454 1452 1450 1448 1445 1443 1441 1439 1437 1436 1434 1432 1430 1429 1427 1425 1424 1423 1421 1420 1418 1417 1416 1415 1414 1413 1412
1470 1470 1469 1469 1468 1468 1467 1466 1466 1465 1464 1462 1461 1459 1457 1455 1453 1451 1449 1447 1445 1443 1441 1439 1437 1435 1433 1432 1430 1428 1426 1425 1423 1422 1421 1419 1418 1416 1415 1413 1412 1410 1410 1409
1468 1468 1468 1467 1466 1465 1465 1464 1463 1462 1461 1460 1458 1457 1455 1453 1451 1449 1447 1445 1443 1441 1439 1437 1435 1433 1431 1429 1428 1426 1424 1423 1421 1420 1418 1417 1415 1414 1412 1411 1409 1407 1406 1406
1465 1465 1465 1464 1464 1463 1462 1461 1460 1459 1458 1457 1455 1454 1452 1450 1448 1446 1444 1443 1441 1438 1436 1434 1432 1431 1429 1427 1425 1424 1422 1420 1419 1417 1416 1414 1413 1411 1410 1408 1406 1405 1403 1402
1463 1462 1462 1461 1461 1460 1460 1459 1458 1457 1455 1454 1453 1451 1449 1447 1445 1444 1442 1440 1438 1436 1434 1432 1430 1429 1427 1425 1423 1421 1420 1418 1417 1415 1413 1412 1410 1408 1407 1405 1404 1402 1401 1400
1460 1460 1460 1459 1458 1457 1457 1456 1455 1454 1452 1451 1449 1448 1446 1444 1442 1441 1439 1437 1435 1434 1432 1430 1428 1426 1424 1423 1421 1419 1418 1416 1414 1413 1411 1409 1407 1406 1404 1403 1401 1400 1398 1397
1458 1457 1457 1456 1455 1455 1454 1453 1452 1451 1449 1448 1446 1444 1443 1441 1440 1438 1436 1434 1432 1430 1429 1428 1426 1424 1422 1420 1419 1417 1415 1414 1412 1410 1408 1407 1405 1403 1402 1400 1399 1397 1396 1395
1455 1455 1454 1453 1453 1452 1450 1449 1448 1447 1446 1444 1443 1441 1440 1438 1437 1435 1433 1431 1430 1428 1426 1425 1423 1422 1420 1418 1417 1415 1413 1412 1410 1408 1406 1404 1403 1401 1400 1398 1397 1395 1394 1393
1452 1452 1451 1450 1449 1448 1448 1446 1445 1444 1443 1441 1439 1438 1436 1435 1433 1432 1430 1428 1427 1426 1424 1422 1421 1419 1418 1416 1415 1413 1411 1409 1408 1406 1404 1402 1401 1399 1398 1396 1394 1393 1392 1390
1450 1449 1448 1447 1446 1445 1444 1443 1442 1441 1439 1438 1436 1434 1433 1431 1430 1428 1427 1426 1424 1423 1421 1420 1418 1417 1415 1414 1412 1410 1409 1407 1405 1404 1402 1401 1399 1397 1396 1394 1392 1391 1390 1388
1447 1446 1445 1444 1443 1442 1441 1440 1439 1437 1436 1434 1433 1431 1430 1429 1427 1426 1424 1423 1421 1420 1419 1417 1416 1414 1413 1411 1409 1408 1406 1405 1403 1402 1400 1398 1397 1395 1394 1392 1390 1389 1388 1386
1444 1443 1442 1441 1440 1439 1438 1437 1436 1434 1433 1431 1430 1429 1427 1426 1424 1423 1422 1420 1419 1417 1416 1414 1413 1411 1410 1408 1407 1405 1404 1402 1401 1399 1398 1396 1395 1393 1391 1390 1388 1387 1385 1384
1442 1440 1439 1438 1437 1436 1435 1434 1432 1431 1430 1428 1427 1426 1425 1423 1422 1420 1419 1417 1416 1414 1413 1411 1410 1408 1407 1405 1403 1402 1401 1399 1398 1396 1395 1393 1392 1390 1389 1387 1386 1384 1383 1382
1439 1438 1437 1436 1435 1433 1432 1431 1429 1428 1427 1425 1424 1423 1422 1421 1419 1418 1416 1414 1413 1411 1410 1408 1406 1405 1403 1402 1400 1399 1397 1396 1395 1393 1392 1390 1389 1387 1386 1384 1383 1382 1380 1379
1436 1435 1434 1433 1432 1431 1429 1428 1427 1425 1424 1423 1421 1420 1419 1418 1416 1415 1413 1411 1410 1408 1406 1405 1403 1401 1400 1398 1397 1395 1394 1392 1391 1390 1388 1387 1385 1384 1382 1381 1380 1378 1377 1376